Weather History for CWLY - November, 2012

Change the Weather History Date:

Thursday, November 8, 2012

  Actual Average Record
Temperature  
Mean Temperature 40 °F -  
Max Temperature 45 °F 44 °F 55 °F (2004)
Min Temperature 36 °F 34 °F 19 °F (2003)
Degree Days  
Heating Degree Days 24    
Moisture  
Dew Point 29 °F    
Average Humidity 64    
Maximum Humidity 93    
Minimum Humidity 33    
Precipitation  
Precipitation 0.00 in - - ()
Sea Level Pressure  
Sea Level Pressure 30.01 in    
Wind  
Wind Speed 5 mph ()    
Max Wind Speed 15 mph    
Max Gust Speed 28 mph    
Visibility 9.0 miles    
Events      
Averages and records for this station are not official NWS values.
T = Trace of Precipitation, MM = Missing Value Source: Averaged Metar Reports

Daily Weather History Graph

Daily Weather History Graph

Search for Another Location

Airport or City:

Trip Planner

Search our weather history database for the weather conditions in past years. The results will help you decide how hot, cold, wet, or windy it might be!

Date:

Astronomy

Nov. 08, 2012 Rise Set
Actual Time 7:09 AM PST 4:30 PM PST
Civil Twilight 6:34 AM PST 5:05 PM PST
Nautical Twilight 5:55 AM PST 5:44 PM PST
Astronomical Twilight 5:17 AM PST 6:22 PM PST
Moon 12:36 AM PST (11/8) 1:44 PM PST (11/8)
Length of Visible Light 10h 30m
Length of Day
9h 20m
Waning Crescent, 32% of the Moon is Illuminated
Nov 8
Waning Crescent
Nov 13
New
Nov 20
First Quarter
Nov 28
Full
Dec 6
Last Quarter

Hourly Weather History & Observations

Time (PST) Temp. Windchill Dew Point Humidity Pressure Visibility Wind Dir Wind Speed Gust Speed Precip Events Conditions
12:00 AM 37.4 °F - 33.8 °F 87% 30.06 in 9.0 mi NNE 2.3 mph - N/A   Overcast
1:00 AM 38 °F - 34 °F 80% 30.06 in 9 mi Calm Calm - -  
1:00 AM 37.4 °F - 33.8 °F 87% 30.06 in 9.0 mi Calm Calm - N/A   Mostly Cloudy
2:00 AM 37.4 °F - 33.8 °F 87% 30.06 in 9.0 mi Calm Calm - N/A   Mostly Cloudy
3:00 AM 37.4 °F - 33.8 °F 87% 30.06 in 9.0 mi East 2.3 mph - N/A   Mostly Cloudy
3:09 AM 37.4 °F - 33.8 °F 87% 30.03 in 9.0 mi Calm Calm - N/A   Overcast
3:52 AM 37.4 °F - 35.6 °F 93% 30.03 in 9.0 mi Calm Calm - N/A   Scattered Clouds
4:00 AM 38 °F - 35 °F 84% 30.05 in 9 mi Calm Calm - -  
4:06 AM 39.2 °F - 35.6 °F 87% 30.02 in 9.0 mi North 2.3 mph - N/A   Mostly Cloudy
4:34 AM 39.2 °F - 35.6 °F 87% 30.02 in 9.0 mi Calm Calm - N/A   Scattered Clouds
5:00 AM 39.2 °F 33.6 °F 33.8 °F 81% 30.05 in 9.0 mi North 8.1 mph - N/A   Scattered Clouds
6:00 AM 39.2 °F 35.0 °F 33.8 °F 81% 30.05 in 9.0 mi NNE 5.8 mph - N/A   Mostly Cloudy
7:00 AM 40 °F - 33 °F 69% 30.04 in 9 mi North 10.4 mph - -  
7:00 AM 39.2 °F 32.5 °F 33.8 °F 81% 30.04 in 9.0 mi North 10.4 mph - N/A   Mostly Cloudy
8:00 AM 41.0 °F 35.2 °F 32.0 °F 70% 30.05 in 9.0 mi North 9.2 mph - N/A   Mostly Cloudy
9:00 AM 41.0 °F 35.2 °F 32.0 °F 70% 30.04 in 9.0 mi North 9.2 mph - N/A   Mostly Cloudy
10:00 AM 43 °F - 30 °F 49% 30.03 in 9 mi North 9.2 mph - -  
10:00 AM 42.8 °F 38.0 °F 30.2 °F 61% 30.03 in 9.0 mi North 8.1 mph - N/A   Partly Cloudy
11:00 AM 44.6 °F 40.2 °F 30.2 °F 57% 30.01 in 9.0 mi North 8.1 mph 21.9 mph N/A   Partly Cloudy
12:00 PM 42.8 °F 36.6 °F 28.4 °F 57% 30.00 in 9.0 mi North 11.5 mph 19.6 mph N/A   Partly Cloudy
1:00 PM 43 °F - 28 °F 43% 29.98 in 9 mi North 12.7 mph - -  
1:00 PM 42.8 °F 36.2 °F 28.4 °F 57% 29.98 in 9.0 mi North 12.7 mph 19.6 mph N/A   Partly Cloudy
2:00 PM 42.8 °F 35.8 °F 26.6 °F 53% 29.97 in 9.0 mi North 13.8 mph 20.7 mph N/A   Scattered Clouds
3:00 PM 42.8 °F 36.2 °F 24.8 °F 49% 29.97 in 9.0 mi NNW 12.7 mph 23.0 mph N/A   Mostly Cloudy
4:00 PM 42 °F - 23 °F 33% 29.98 in 9 mi NNW 15.0 mph - -  
4:00 PM 41.0 °F 33.1 °F 23.0 °F 49% 29.98 in 9.0 mi NNW 15.0 mph 27.6 mph N/A   Mostly Cloudy
5:00 PM 41.0 °F 34.3 °F 21.2 °F 45% 29.98 in 9.0 mi NW 11.5 mph 20.7 mph N/A   Scattered Clouds
6:00 PM 41.0 °F 35.8 °F 21.2 °F 45% 29.99 in 9.0 mi NNW 8.1 mph 19.6 mph N/A   Partly Cloudy
7:00 PM 40 °F - 22 °F 35% 29.99 in 9 mi North 9.2 mph - -  
7:00 PM 41.0 °F 35.2 °F 21.2 °F 45% 29.99 in 9.0 mi North 9.2 mph 19.6 mph N/A   Partly Cloudy
8:00 PM 39.2 °F 33.0 °F 23.0 °F 52% 29.98 in 9.0 mi North 9.2 mph - N/A   Partly Cloudy
9:00 PM 39.2 °F 34.2 °F 23.0 °F 52% 29.98 in 9.0 mi North 6.9 mph - N/A   Partly Cloudy
10:00 PM 39 °F - 22 °F 37% 29.98 in 9 mi North 10.4 mph - -  
10:00 PM 39.2 °F 32.5 °F 21.2 °F 49% 29.98 in 9.0 mi North 10.4 mph 19.6 mph N/A   Partly Cloudy
11:00 PM 39.2 °F 32.5 °F 21.2 °F 49% 29.98 in 9.0 mi NNW 10.4 mph 21.9 mph N/A   Clear